.
WxDataArchive / Data Records for 2009-08-24
2009-08-23 August 2009 2009-08-25

Data Records for Monday, 24 August 2009

Time	Temp	Chill	HIndex	Humid	Dewpt	 Wind 	HiWind	WindDir	Rain 	Barom 
-----	----	-----	------	-----	-----	------	------	-------	-----	----- 
00:00	61.0	61.0	61.0	93	59.0	0	0	---	0.00	30.113 
00:05	61.0	61.0	61.0	93	59.0	0	0	---	0.00	30.113 
00:10	60.9	60.9	60.9	93	58.9	0	0	---	0.00	30.113 
00:15	60.7	60.7	60.7	93	58.7	0	0	---	0.00	30.116 
00:20	60.5	60.5	60.5	93	58.5	0	0	---	0.00	30.116 
00:25	60.5	60.5	60.5	93	58.5	0	0	---	0.00	30.116 
00:30	60.4	60.4	60.4	93	58.4	0	0	---	0.00	30.117 
00:35	60.4	60.4	60.4	93	58.4	0	0	---	0.00	30.117 
00:40	60.2	60.2	60.2	93	58.2	0	0	---	0.00	30.117 
00:45	60.1	60.1	60.1	93	58.1	0	0	---	0.00	30.117 
00:50	60.1	60.1	60.1	93	58.1	0	0	---	0.00	30.117 
00:55	60.1	60.1	60.1	93	58.1	0	0	---	0.00	30.117 
01:00	59.9	59.9	59.9	93	57.9	0	0	---	0.00	30.119 
01:05	59.9	59.9	59.9	93	57.9	0	0	---	0.00	30.119 
01:10	59.8	59.8	59.8	93	57.8	0	0	---	0.00	30.119 
01:15	59.8	59.8	59.8	93	57.8	0	0	---	0.00	30.123 
01:20	59.6	59.6	59.6	93	57.6	0	0	---	0.00	30.123 
01:25	59.5	59.5	59.5	93	57.5	0	0	---	0.00	30.123 
01:30	59.5	59.5	59.5	93	57.5	0	0	---	0.00	30.122 
01:35	59.3	59.3	59.3	93	57.3	0	0	---	0.00	30.122 
01:40	59.2	59.2	59.2	94	57.5	0	0	---	0.00	30.122 
01:45	59.2	59.2	59.2	94	57.5	0	0	---	0.00	30.119 
01:50	59.0	59.0	59.0	94	57.3	0	0	---	0.00	30.119 
01:55	59.0	59.0	59.0	94	57.3	0	0	---	0.00	30.119 
02:00	58.9	58.9	58.9	94	57.2	0	0	---	0.00	30.118 
02:05	58.7	58.7	58.7	94	57.0	0	0	---	0.00	30.118 
02:10	58.7	58.7	58.7	94	57.0	0	0	---	0.00	30.118 
02:15	58.7	58.7	58.7	94	57.0	0	0	---	0.00	30.119 
02:20	58.7	58.7	58.7	94	57.0	0	0	---	0.00	30.119 
02:25	58.7	58.7	58.7	94	57.0	0	0	---	0.00	30.119 
02:30	58.7	58.7	58.7	94	57.0	0	0	---	0.00	30.120 
02:35	58.7	58.7	58.7	95	57.3	0	0	---	0.00	30.120 
02:40	58.6	58.6	58.6	95	57.2	0	0	---	0.00	30.120 
02:45	58.6	58.6	58.6	95	57.2	0	0	---	0.00	30.121 
02:50	58.4	58.4	58.4	95	57.0	0	0	---	0.00	30.121 
02:55	58.3	58.3	58.3	95	56.9	0	0	---	0.00	30.121 
03:00	58.3	58.3	58.3	95	56.9	0	0	---	0.00	30.124 
03:05	58.1	58.1	58.1	95	56.7	0	0	---	0.00	30.124 
03:10	58.0	58.0	58.0	95	56.6	0	0	---	0.00	30.124 
03:15	57.8	57.8	57.8	95	56.4	0	0	---	0.00	30.127 
03:20	57.8	57.8	57.8	95	56.4	0	0	---	0.00	30.127 
03:25	57.6	57.6	57.6	95	56.2	0	0	---	0.00	30.127 
03:30	57.5	57.5	57.5	95	56.1	0	0	---	0.00	30.135 
03:35	57.3	57.3	57.3	95	55.9	0	0	---	0.00	30.135 
03:40	57.3	57.3	57.3	95	55.9	0	0	---	0.00	30.135 
03:45	57.2	57.2	57.2	95	55.8	0	0	---	0.00	30.138 
03:50	57.0	57.0	57.0	95	55.6	0	0	---	0.00	30.138 
03:55	56.9	56.9	56.9	95	55.5	0	0	---	0.00	30.138 
04:00	56.7	56.7	56.7	95	55.3	0	0	---	0.00	30.140 
04:05	56.6	56.6	56.6	95	55.2	0	0	---	0.00	30.140 
04:10	56.5	56.5	56.5	95	55.1	0	0	---	0.00	30.140 
04:15	56.5	56.5	56.5	95	55.1	0	0	---	0.00	30.139 
04:20	56.3	56.3	56.3	95	54.9	0	0	---	0.00	30.139 
04:25	56.3	56.3	56.3	95	54.9	0	0	---	0.00	30.139 
04:30	56.2	56.2	56.2	95	54.8	0	0	---	0.00	30.141 
04:35	56.0	56.0	56.0	95	54.6	0	0	---	0.00	30.141 
04:40	56.0	56.0	56.0	95	54.6	0	0	---	0.00	30.141 
04:45	55.9	55.9	55.9	95	54.5	0	0	---	0.00	30.141 
04:50	55.9	55.9	55.9	95	54.5	0	0	---	0.00	30.141 
04:55	55.9	55.9	55.9	95	54.5	0	0	---	0.00	30.141 
05:00	55.7	55.7	55.7	95	54.3	0	0	---	0.00	30.142 
05:05	55.7	55.7	55.7	95	54.3	0	0	---	0.00	30.142 
05:10	55.6	55.6	55.6	95	54.2	0	0	---	0.00	30.142 
05:15	55.4	55.4	55.4	95	54.0	0	0	---	0.00	30.144 
05:20	55.3	55.3	55.3	96	54.2	0	0	---	0.00	30.144 
05:25	55.3	55.3	55.3	95	53.9	0	0	---	0.00	30.144 
05:30	55.1	55.1	55.1	96	54.0	0	0	---	0.00	30.146 
05:35	55.1	55.1	55.1	96	54.0	0	0	---	0.00	30.146 
05:40	55.1	55.1	55.1	96	54.0	0	0	---	0.00	30.146 
05:45	55.1	55.1	55.1	96	54.0	0	0	---	0.00	30.149 
05:50	55.0	55.0	55.0	96	53.9	0	0	---	0.00	30.149 
05:55	54.8	54.8	54.8	96	53.7	0	0	---	0.00	30.149 
06:00	54.7	54.7	54.7	96	53.6	0	0	---	0.00	30.147 
06:05	54.7	54.7	54.7	96	53.6	0	0	---	0.00	30.147 
06:10	54.5	54.5	54.5	96	53.4	0	0	---	0.00	30.147 
06:15	54.5	54.5	54.5	96	53.4	0	0	---	0.00	30.152 
06:20	54.4	54.4	54.4	96	53.3	0	0	---	0.00	30.152 
06:25	54.4	54.4	54.4	96	53.3	0	0	---	0.00	30.152 
06:30	54.2	54.2	54.2	96	53.1	0	0	---	0.00	30.149 
06:35	54.1	54.1	54.1	96	53.0	0	0	---	0.00	30.149 
06:40	54.1	54.1	54.1	96	53.0	0	0	---	0.00	30.149 
06:45	54.1	54.1	54.1	96	53.0	0	0	---	0.00	30.159 
06:50	54.1	54.1	54.1	96	53.0	0	0	---	0.00	30.159 
06:55	54.1	54.1	54.1	96	53.0	0	0	---	0.00	30.159 
07:00	53.9	53.9	53.9	96	52.8	0	0	---	0.00	30.163 
07:05	53.9	53.9	53.9	96	52.8	0	0	---	0.00	30.163 
07:10	53.9	53.9	53.9	96	52.8	0	0	---	0.00	30.163 
07:15	53.9	53.9	53.9	96	52.8	0	0	---	0.00	30.174 
07:20	53.9	53.9	53.9	96	52.8	0	0	---	0.00	30.174 
07:25	53.9	53.9	53.9	96	52.8	0	0	---	0.00	30.174 
07:30	54.1	54.1	54.1	96	53.0	0	0	---	0.00	30.177 
07:35	54.2	54.2	54.2	96	53.1	0	0	---	0.00	30.177 
07:40	54.7	54.7	54.7	96	53.6	0	0	---	0.00	30.177 
07:45	55.0	55.0	55.0	96	53.9	0	0	---	0.00	30.182 
07:50	55.4	55.4	55.4	96	54.3	0	0	---	0.00	30.182 
07:55	55.7	55.7	55.7	96	54.6	0	0	---	0.00	30.182 
08:00	56.2	56.2	56.2	96	55.1	0	0	---	0.00	30.180 
08:05	56.5	56.5	56.5	96	55.4	0	0	---	0.00	30.180 
08:10	57.2	57.2	57.2	97	56.4	0	0	---	0.00	30.180 
08:15	58.1	58.1	58.1	97	57.3	0	0	---	0.00	30.174 
08:20	58.9	58.9	58.9	97	58.0	0	0	---	0.00	30.174 
08:25	59.5	59.5	59.5	97	58.6	0	0	---	0.00	30.174 
08:30	59.9	59.9	59.9	97	59.0	0	0	---	0.00	30.174 
08:35	60.5	60.5	60.5	97	59.6	0	0	---	0.00	30.174 
08:40	61.3	61.3	61.3	97	60.4	0	0	---	0.00	30.174 
08:45	62.0	62.0	62.0	96	60.8	0	0	---	0.00	30.173 
08:50	62.4	62.4	62.4	96	61.2	0	1	180	0.00	30.173 
08:55	62.7	62.7	62.7	95	61.2	0	0	---	0.00	30.173 
09:00	63.4	63.4	63.4	93	61.3	0	0	---	0.00	30.177 
09:05	63.7	63.7	63.7	91	61.0	0	0	---	0.00	30.177 
09:10	64.0	64.0	64.0	91	61.3	0	0	---	0.00	30.177 
09:15	63.9	63.9	63.9	90	60.9	0	0	---	0.00	30.181 
09:20	64.0	64.0	64.0	89	60.7	0	0	---	0.00	30.181 
09:25	64.3	64.3	64.3	88	60.7	0	2	135	0.00	30.181 
09:30	64.8	64.8	64.8	87	60.8	0	2	135	0.00	30.183 
09:35	65.3	65.3	65.3	85	60.7	0	2	135	0.00	30.183 
09:40	65.6	65.6	65.6	83	60.3	0	2	135	0.00	30.183 
09:45	66.1	66.1	66.1	83	60.8	0	2	135	0.00	30.186 
09:50	66.8	66.8	66.8	82	61.1	0	1	135	0.00	30.186 
09:55	67.3	67.3	67.3	80	60.9	0	1	135	0.00	30.186 
10:00	67.8	67.8	67.8	77	60.3	0	2	135	0.00	30.186 
10:05	68.4	68.4	68.4	76	60.5	1	3	135	0.00	30.186 
10:10	68.9	68.9	68.9	76	61.0	1	4	90	0.00	30.186 
10:15	69.4	69.4	69.4	74	60.7	1	3	90	0.00	30.190 
10:20	70.3	70.3	70.3	75	62.0	0	1	90	0.00	30.190 
10:25	70.9	70.9	70.9	71	61.0	0	2	90	0.00	30.190 
10:30	71.3	71.3	71.3	72	61.8	0	2	90	0.00	30.193 
10:35	71.8	71.8	71.8	70	61.5	0	1	90	0.00	30.193 
10:40	72.1	72.1	72.1	68	60.9	1	3	90	0.00	30.193 
10:45	72.3	72.3	72.3	71	62.4	0	2	90	0.00	30.190 
10:50	72.5	72.5	72.5	64	59.6	0	2	112	0.00	30.190 
10:55	72.3	72.3	72.3	63	59.0	1	2	202	0.00	30.190 
11:00	72.0	72.0	72.0	65	59.6	0	1	202	0.00	30.196 
11:05	72.0	72.0	72.0	62	58.3	0	1	202	0.00	30.196 
11:10	72.3	72.3	72.3	63	59.0	0	1	202	0.00	30.196 
11:15	71.8	71.8	71.8	64	59.0	0	2	202	0.00	30.198 
11:20	70.9	70.9	70.9	64	58.1	0	1	202	0.00	30.198 
11:25	70.4	70.4	70.4	65	58.1	0	1	202	0.00	30.198 
11:30	70.3	70.3	70.3	62	56.7	0	1	202	0.00	30.200 
11:35	71.3	71.3	71.3	61	57.1	0	1	202	0.00	30.200 
11:40	72.7	72.7	72.7	63	59.4	0	3	202	0.00	30.200 
11:45	73.9	73.9	73.9	60	59.1	0	1	202	0.00	30.197 
11:50	73.5	73.5	73.5	59	58.3	0	1	202	0.00	30.197 
11:55	72.5	72.5	72.5	62	58.7	0	1	202	0.00	30.197 
12:00	72.0	72.0	72.0	62	58.3	0	1	202	0.00	30.209 
12:05	72.0	72.0	72.0	61	57.8	0	1	202	0.00	30.209 
12:10	72.3	72.3	72.3	61	58.1	0	2	202	0.00	30.209 
12:15	73.0	73.0	73.0	62	59.2	0	2	202	0.00	30.212 
12:20	73.5	73.5	73.5	61	59.2	1	2	202	0.00	30.212 
12:25	73.2	73.2	73.2	60	58.5	1	3	270	0.00	30.212 
12:30	72.5	72.5	72.5	60	57.8	0	3	270	0.00	30.212 
12:35	72.1	72.1	72.1	63	58.8	0	1	270	0.00	30.212 
12:40	72.1	72.1	72.1	63	58.8	0	1	270	0.00	30.212 
12:45	72.8	72.8	72.8	60	58.1	0	2	270	0.00	30.202 
12:50	73.9	73.9	73.9	61	59.6	0	2	270	0.00	30.202 
12:55	74.2	74.2	74.2	58	58.5	0	1	270	0.00	30.202 
13:00	73.5	73.5	73.5	58	57.8	0	1	270	0.00	30.202 
13:05	72.7	72.7	72.7	57	56.6	0	1	270	0.00	30.202 
13:10	72.3	72.3	72.3	55	55.2	0	1	270	0.00	30.202 
13:15	72.1	72.1	72.1	55	55.0	0	0	---	0.00	30.200 
13:20	72.7	72.7	72.7	54	55.1	0	1	270	0.00	30.200 
13:25	73.7	73.7	73.7	54	56.0	0	1	270	0.00	30.200 
13:30	74.9	74.9	74.9	54	57.1	1	3	270	0.00	30.190 
13:35	75.6	75.6	77.8	58	59.8	1	2	90	0.00	30.190 
13:40	75.8	75.8	77.9	56	59.0	2	5	112	0.00	30.190 
13:45	75.4	75.4	77.8	53	57.1	2	4	90	0.00	30.184 
13:50	75.4	75.4	77.8	53	57.1	1	3	90	0.00	30.184 
13:55	75.8	75.8	78.0	53	57.4	1	4	90	0.00	30.184 
14:00	76.3	76.3	78.2	51	56.8	0	1	90	0.00	30.186 
14:05	76.5	76.5	78.3	49	55.9	0	2	90	0.00	30.186 
14:10	76.7	76.7	78.5	54	58.8	0	2	68	0.00	30.186 
14:15	76.7	76.7	78.5	53	58.3	1	2	68	0.00	30.186 
14:20	76.7	76.7	78.5	52	57.7	0	2	68	0.00	30.186 
14:25	76.3	76.3	78.2	50	56.3	0	1	68	0.00	30.186 
14:30	76.1	76.1	78.1	55	58.7	0	1	68	0.00	30.182 
14:35	76.3	76.3	78.2	51	56.8	1	2	45	0.00	30.182 
14:40	76.7	76.7	78.5	53	58.3	0	2	45	0.00	30.182 
14:45	77.0	77.0	78.6	50	56.9	0	2	45	0.00	30.177 
14:50	77.2	77.2	78.8	52	58.2	0	3	315	0.00	30.177 
14:55	77.6	77.6	79.0	50	57.5	0	3	315	0.00	30.177 
15:00	77.7	77.7	78.9	48	56.4	1	3	90	0.00	30.175 
15:05	78.1	78.1	79.3	50	57.9	1	3	90	0.00	30.175 
15:10	78.1	78.1	79.2	47	56.2	1	4	112	0.00	30.175 
15:15	77.7	77.7	79.0	50	57.6	1	3	112	0.00	30.169 
15:20	77.6	77.6	79.0	50	57.5	0	2	90	0.00	30.169 
15:25	77.7	77.7	79.0	50	57.6	0	4	112	0.00	30.169 
15:30	77.7	77.7	79.0	50	57.6	1	3	112	0.00	30.164 
15:35	77.6	77.6	79.0	51	58.0	1	4	112	0.00	30.164 
15:40	77.0	77.0	78.6	50	56.9	0	3	112	0.00	30.164 
15:45	76.5	76.5	78.4	52	57.5	0	1	22	0.00	30.166 
15:50	76.5	76.5	78.4	52	57.5	0	3	90	0.00	30.166 
15:55	76.1	76.1	78.1	52	57.2	1	3	90	0.00	30.166 
16:00	75.4	75.4	77.8	52	56.5	1	3	90	0.00	30.164 
16:05	75.1	75.1	77.6	53	56.8	0	1	90	0.00	30.164 
16:10	75.4	75.4	77.7	58	59.6	0	2	90	0.00	30.164 
16:15	76.1	76.1	78.1	51	56.6	0	1	90	0.00	30.161 
16:20	77.2	77.2	78.8	53	58.7	0	2	135	0.00	30.161 
16:25	78.5	78.5	79.8	54	60.4	0	1	135	0.00	30.161 
16:30	78.6	78.6	79.7	50	58.4	1	3	135	0.00	30.156 
16:35	78.5	78.5	79.5	49	57.7	0	3	112	0.00	30.156 
16:40	78.3	78.3	79.4	50	58.1	0	3	112	0.00	30.156 
16:45	78.1	78.1	79.4	51	58.5	0	1	135	0.00	30.152 
16:50	78.1	78.1	79.3	50	57.9	0	2	135	0.00	30.152 
16:55	78.3	78.3	79.5	51	58.7	0	1	135	0.00	30.152 
17:00	78.3	78.3	79.4	50	58.1	0	3	292	0.00	30.151 
17:05	77.9	77.9	79.3	53	59.4	0	1	292	0.00	30.151 
17:10	78.1	78.1	79.3	50	57.9	0	2	292	0.00	30.151 
17:15	78.5	78.5	79.5	49	57.7	0	2	292	0.00	30.153 
17:20	78.6	78.6	79.7	51	58.9	0	2	292	0.00	30.153 
17:25	78.3	78.3	79.4	49	57.5	0	1	292	0.00	30.153 
17:30	78.5	78.5	79.7	52	59.4	0	1	292	0.00	30.148 
17:35	78.3	78.3	79.4	50	58.1	0	1	292	0.00	30.148 
17:40	78.3	78.3	79.7	54	60.3	0	1	292	0.00	30.148 
17:45	78.3	78.3	79.7	54	60.3	0	2	292	0.00	30.149 
17:50	77.7	77.7	79.1	52	58.6	1	2	338	0.00	30.149 
17:55	77.2	77.2	78.8	53	58.7	1	3	0	0.00	30.149 
18:00	76.7	76.7	78.5	56	59.8	0	2	0	0.00	30.148 
18:05	76.3	76.3	78.3	55	58.9	0	1	0	0.00	30.148 
18:10	76.1	76.1	78.1	55	58.7	0	2	0	0.00	30.148 
18:15	76.1	76.1	78.1	56	59.2	0	2	0	0.00	30.149 
18:20	76.0	76.0	78.1	54	58.1	0	2	0	0.00	30.149 
18:25	75.8	75.8	78.0	54	57.9	1	3	0	0.00	30.149 
18:30	75.8	75.8	78.0	54	57.9	0	2	22	0.00	30.149 
18:35	75.6	75.6	77.8	56	58.8	1	2	22	0.00	30.149 
18:40	75.6	75.6	77.8	56	58.8	0	1	22	0.00	30.149 
18:45	75.6	75.6	77.8	55	58.3	0	2	45	0.00	30.149 
18:50	75.6	75.6	77.8	55	58.3	1	3	45	0.00	30.149 
18:55	75.4	75.4	77.7	57	59.1	1	3	68	0.00	30.149 
19:00	75.3	75.3	77.6	58	59.5	0	1	68	0.00	30.150 
19:05	75.3	75.3	77.6	58	59.5	0	1	90	0.00	30.150 
19:10	75.1	75.1	77.5	58	59.3	0	1	90	0.00	30.150 
19:15	74.9	74.9	74.9	57	58.6	0	2	90	0.00	30.147 
19:20	74.9	74.9	74.9	57	58.6	0	1	90	0.00	30.147 
19:25	74.7	74.7	74.7	58	58.9	0	1	90	0.00	30.147 
19:30	74.6	74.6	74.6	59	59.3	0	1	90	0.00	30.145 
19:35	74.2	74.2	74.2	60	59.4	0	1	90	0.00	30.145 
19:40	74.0	74.0	74.0	62	60.1	0	0	---	0.00	30.145 
19:45	73.7	73.7	73.7	62	59.9	0	0	---	0.00	30.147 
19:50	73.3	73.3	73.3	63	59.9	0	0	---	0.00	30.147 
19:55	73.2	73.2	73.2	64	60.3	0	0	---	0.00	30.147 
20:00	72.8	72.8	72.8	64	59.9	0	0	---	0.00	30.145 
20:05	72.5	72.5	72.5	65	60.0	0	0	---	0.00	30.145 
20:10	72.1	72.1	72.1	65	59.7	0	0	---	0.00	30.145 
20:15	71.6	71.6	71.6	65	59.2	0	0	---	0.00	30.143 
20:20	71.3	71.3	71.3	66	59.3	0	0	---	0.00	30.143 
20:25	70.9	70.9	70.9	67	59.4	0	0	---	0.00	30.143 
20:30	70.6	70.6	70.6	68	59.5	0	0	---	0.00	30.139 
20:35	69.9	69.9	69.9	69	59.3	0	0	---	0.00	30.139 
20:40	69.6	69.6	69.6	69	59.0	0	0	---	0.00	30.139 
20:45	69.4	69.4	69.4	70	59.2	0	0	---	0.00	30.142 
20:50	69.1	69.1	69.1	70	58.9	0	0	---	0.00	30.142 
20:55	68.6	68.6	68.6	73	59.6	0	0	---	0.00	30.142 
21:00	68.1	68.1	68.1	73	59.1	0	0	---	0.00	30.149 
21:05	67.8	67.8	67.8	75	59.6	0	0	---	0.00	30.149 
21:10	67.3	67.3	67.3	76	59.5	0	0	---	0.00	30.149 
21:15	66.9	66.9	66.9	77	59.4	0	0	---	0.00	30.149 
21:20	66.8	66.8	66.8	77	59.3	0	0	---	0.00	30.149 
21:25	66.4	66.4	66.4	78	59.3	0	0	---	0.00	30.149 
21:30	66.3	66.3	66.3	79	59.6	0	0	---	0.00	30.148 
21:35	66.0	66.0	66.0	80	59.6	0	0	---	0.00	30.148 
21:40	65.6	65.6	65.6	81	59.6	0	0	---	0.00	30.148 
21:45	65.3	65.3	65.3	82	59.7	0	0	---	0.00	30.150 
21:50	65.0	65.0	65.0	82	59.4	0	0	---	0.00	30.150 
21:55	64.8	64.8	64.8	83	59.5	0	0	---	0.00	30.150 
22:00	64.7	64.7	64.7	84	59.7	0	0	---	0.00	30.155 
22:05	64.3	64.3	64.3	84	59.4	0	0	---	0.00	30.155 
22:10	64.2	64.2	64.2	84	59.3	0	0	---	0.00	30.155 
22:15	64.0	64.0	64.0	85	59.4	0	0	---	0.00	30.151 
22:20	63.9	63.9	63.9	85	59.3	0	0	---	0.00	30.151 
22:25	63.5	63.5	63.5	86	59.2	0	0	---	0.00	30.151 
22:30	63.4	63.4	63.4	86	59.1	0	0	---	0.00	30.151 
22:35	63.2	63.2	63.2	87	59.3	0	0	---	0.00	30.151 
22:40	63.1	63.1	63.1	87	59.2	0	0	---	0.00	30.151 
22:45	62.9	62.9	62.9	87	59.0	0	0	---	0.00	30.153 
22:50	62.6	62.6	62.6	88	59.0	0	0	---	0.00	30.153 
22:55	62.4	62.4	62.4	88	58.8	0	0	---	0.00	30.153 
23:00	62.3	62.3	62.3	88	58.7	0	0	---	0.00	30.154 
23:05	62.1	62.1	62.1	89	58.8	0	0	---	0.00	30.154 
23:10	62.0	62.0	62.0	89	58.7	0	0	---	0.00	30.154 
23:15	61.6	61.6	61.6	89	58.3	0	0	---	0.00	30.153 
23:20	61.5	61.5	61.5	90	58.5	0	0	---	0.00	30.153 
23:25	61.3	61.3	61.3	90	58.3	0	0	---	0.00	30.153 
23:30	61.3	61.3	61.3	90	58.3	0	0	---	0.00	30.155 
23:35	61.2	61.2	61.2	91	58.5	0	0	---	0.00	30.155 
23:40	61.0	61.0	61.0	91	58.4	0	0	---	0.00	30.155 
23:45	60.9	60.9	60.9	91	58.3	0	0	---	0.00	30.153 
23:50	60.9	60.9	60.9	92	58.6	0	0	---	0.00	30.153 
23:55	60.7	60.7	60.7	92	58.4	0	0	---	0.00	30.153 

CoCoRaHS
IN-AL-39
A2 Web Hosting
Creative Commons License
GoDaddy
search engine by freefind advanced

loaded 2018-11-13 23:42:45 • last modified 2010-11-18 10:43:29
Privacy PolicyDisclaimer
• wx.awcolley.com is powered by PmWiki v.2002016 •
• all content (unless otherwise noted) © 2018 A W Colley